Location: Bailey Volunteer Fire Department
(33.4359°N, 96.1680°W)
Time: 17:27:23
(UTC+00:00)

BREEZE-M DEB (TANK) - Pass Details

Date: 13 December 2025
Orbit: 316 x 11320 km, 49.7° (Epoch: 13 January)

Event Time Altitude Azimuth Distance (km) Brightness Sun altitude
Rises 12:37:53 0° 238° (WSW) 4,664 7.7 -8.8°
Reaches altitude 10° 12:42:18 10° 243° (WSW) 2,621 6.4 -8.0°
Maximum altitude 12:47:06 44° 317° (NW) 661 3.3 -7.1°
Drops below altitude 10° 12:49:33 10° 34° (NNE) 1,324 5.4 -6.6°
Sets 12:51:05 0° 42° (NE) 2,060 6.5 -6.3°
